When you browse on this site, cookies collect data to enhance your experience and personalize the content and advertising you see.
Visit our Privacy Policy to learn more. By continuing to use the site, you agree to this use of cookies and data.
  • In Switzerland
  • List of Countries
  • For 7 days
  • Water Temperature
  • Satellite Maps
  • Weather Map
  • Weather Widgets
  • user-avatar
    Login

    Hourly Weather Kolyshkino

    Today, 27 June, Thursday

    Time Temperature Precipitation Wind Pressure Humidity
    00:00 +18°C° 0.9 mm 1 mps 743 mmHg 89%
    01:00 +18°C° 0.9 mm 1 mps 743 mmHg 92%
    02:00 +16°C° 0.9 mm 1 mps 742 mmHg 95%
    03:00 +16°C° 0.1 mm 1 mps 742 mmHg 95%
    04:00 +18°C° 0.1 mm 1 mps 741 mmHg 95%
    05:00 +18°C° 0.1 mm 1 mps 740 mmHg 95%
    06:00 +19°C° 0 mm 1 mps 740 mmHg 95%
    07:00 +19°C° 0 mm 1 mps 740 mmHg 94%
    08:00 +19°C° 0 mm 2 mps 739 mmHg 93%
    09:00 +19°C° 2.2 mm 2 mps 738 mmHg 94%
    10:00 +19°C° 2.2 mm 3 mps 737 mmHg 95%
    11:00 +19°C° 2.2 mm 4 mps 736 mmHg 96%
    12:00 +20°C° 0.9 mm 4 mps 736 mmHg 94%
    13:00 +21°C° 0.9 mm 4 mps 735 mmHg 92%
    14:00 +21°C° 0.9 mm 4 mps 734 mmHg 90%
    15:00 +21°C° 5.3 mm 3 mps 733 mmHg 92%
    16:00 +20°C° 5.3 mm 3 mps 732 mmHg 93%
    17:00 +20°C° 5.3 mm 2 mps 730 mmHg 95%
    18:00 +19°C° 0.2 mm 2 mps 730 mmHg 95%
    19:00 +19°C° 0.2 mm 2 mps 729 mmHg 96%
    20:00 +19°C° 0.2 mm 2 mps 729 mmHg 96%
    21:00 +18°C° 0.2 mm 3 mps 728 mmHg 96%
    22:00 +18°C° 0.2 mm 4 mps 728 mmHg 96%
    23:00 +17°C° 0.2 mm 5 mps 727 mmHg 96%

    Tomorrow, 28 June, Friday

    Time Temperature Precipitation Wind Pressure Humidity
    00:00 +16°C° 0 mm 5 mps 727 mmHg 96%
    01:00 +16°C° 0 mm 5 mps 727 mmHg 95%
    02:00 +16°C° 0 mm 5 mps 727 mmHg 95%
    03:00 +15°C° 0.1 mm 6 mps 727 mmHg 94%
    04:00 +14°C° 0.1 mm 6 mps 726 mmHg 93%
    05:00 +13°C° 0.1 mm 6 mps 726 mmHg 92%
    06:00 +13°C° 0 mm 6 mps 726 mmHg 90%
    07:00 +14°C° 0 mm 6 mps 726 mmHg 89%
    08:00 +14°C° 0 mm 6 mps 726 mmHg 87%
    09:00 +14°C° 0 mm 6 mps 726 mmHg 85%
    10:00 +14°C° 0 mm 6 mps 725 mmHg 83%
    11:00 +14°C° 0 mm 6 mps 725 mmHg 82%
    12:00 +15°C° 0 mm 5 mps 725 mmHg 81%
    13:00 +15°C° 0 mm 5 mps 726 mmHg 81%
    14:00 +15°C° 0 mm 4 mps 726 mmHg 81%
    15:00 +14°C° 0.2 mm 5 mps 726 mmHg 85%
    16:00 +11°C° 0.2 mm 6 mps 726 mmHg 89%
    17:00 +10°C° 0.2 mm 6 mps 727 mmHg 93%
    18:00 +10°C° 0.2 mm 6 mps 727 mmHg 93%
    19:00 +9°C° 0.2 mm 6 mps 728 mmHg 94%
    20:00 +9°C° 0.2 mm 6 mps 728 mmHg 94%
    21:00 +9°C° 0.4 mm 7 mps 728 mmHg 94%
    22:00 +9°C° 0.4 mm 7 mps 728 mmHg 94%
    23:00 +9°C° 0.4 mm 7 mps 729 mmHg 94%

    Day after tomorrow, 29 June, Saturday

    Time Temperature Precipitation Wind Pressure Humidity
    00:00 +9°C° 0.4 mm 7 mps 729 mmHg 94%
    01:00 +9°C° 0.4 mm 7 mps 729 mmHg 94%
    02:00 +9°C° 0.4 mm 7 mps 729 mmHg 95%
    03:00 +9°C° 0.4 mm 7 mps 730 mmHg 95%
    04:00 +8°C° 0.4 mm 7 mps 730 mmHg 94%
    05:00 +7°C° 0.4 mm 8 mps 730 mmHg 94%
    06:00 +6°C° 0.5 mm 8 mps 731 mmHg 94%
    07:00 +5°C° 0.5 mm 8 mps 731 mmHg 93%
    08:00 +5°C° 0.5 mm 8 mps 732 mmHg 93%
    09:00 +5°C° 0.6 mm 8 mps 732 mmHg 93%
    10:00 +5°C° 0.6 mm 7 mps 733 mmHg 92%
    11:00 +5°C° 0.6 mm 7 mps 733 mmHg 92%
    12:00 +5°C° 1 mm 7 mps 734 mmHg 92%
    13:00 +5°C° 1 mm 7 mps 734 mmHg 92%
    14:00 +6°C° 1 mm 7 mps 735 mmHg 93%
    15:00 +7°C° 0.8 mm 6 mps 735 mmHg 93%
    16:00 +7°C° 0.8 mm 6 mps 735 mmHg 93%
    17:00 +7°C° 0.8 mm 5 mps 735 mmHg 94%
    18:00 +7°C° 0.4 mm 4 mps 736 mmHg 93%
    19:00 +8°C° 0.4 mm 3 mps 736 mmHg 93%
    20:00 +8°C° 0.4 mm 3 mps 736 mmHg 93%
    21:00 +8°C° 0 mm 3 mps 737 mmHg 92%
    22:00 +8°C° 0 mm 3 mps 737 mmHg 92%
    23:00 +8°C° 0 mm 3 mps 737 mmHg 92%

    30 June, Sunday

    Time Temperature Precipitation Wind Pressure Humidity
    00:00 +8°C° 0 mm 3 mps 737 mmHg 93%
    01:00 +7°C° 0 mm 2 mps 737 mmHg 94%
    02:00 +7°C° 0 mm 2 mps 737 mmHg 94%
    03:00 +7°C° 0 mm 3 mps 738 mmHg 92%
    04:00 +7°C° 0 mm 3 mps 738 mmHg 90%
    05:00 +6°C° 0 mm 4 mps 738 mmHg 89%
    06:00 +8°C° 0 mm 4 mps 739 mmHg 82%
    07:00 +11°C° 0 mm 4 mps 739 mmHg 76%
    08:00 +13°C° 0 mm 4 mps 739 mmHg 70%
    09:00 +14°C° 0 mm 4 mps 739 mmHg 64%
    10:00 +16°C° 0 mm 5 mps 740 mmHg 58%
    11:00 +17°C° 0 mm 5 mps 740 mmHg 53%
    12:00 +19°C° 0 mm 5 mps 740 mmHg 53%
    13:00 +19°C° 0 mm 4 mps 740 mmHg 52%
    14:00 +20°C° 0 mm 4 mps 740 mmHg 52%
    15:00 +20°C° 0 mm 4 mps 740 mmHg 57%
    16:00 +20°C° 0 mm 3 mps 740 mmHg 62%
    17:00 +20°C° 0 mm 2 mps 740 mmHg 66%
    18:00 +18°C° 0 mm 2 mps 740 mmHg 74%
    19:00 +16°C° 0 mm 2 mps 741 mmHg 81%
    20:00 +14°C° 0 mm 2 mps 741 mmHg 89%
    21:00 +14°C° 0 mm 2 mps 741 mmHg 90%
    22:00 +13°C° 0 mm 2 mps 741 mmHg 92%
    23:00 +12°C° 0 mm 2 mps 741 mmHg 94%

    1 July, Monday

    Time Temperature Precipitation Wind Pressure Humidity
    00:00 +12°C° 0 mm 2 mps 741 mmHg 95%
    01:00 +10°C° 0 mm 2 mps 741 mmHg 95%
    02:00 +10°C° 0 mm 2 mps 741 mmHg 96%
    03:00 +12°C° 0 mm 2 mps 741 mmHg 95%
    04:00 +12°C° 0 mm 2 mps 742 mmHg 94%
    05:00 +13°C° 0 mm 2 mps 742 mmHg 93%
    06:00 +14°C° 0 mm 1 mps 742 mmHg 86%
    07:00 +16°C° 0 mm 1 mps 741 mmHg 78%
    08:00 +19°C° 0 mm 1 mps 741 mmHg 71%
    09:00 +20°C° 0 mm 1 mps 741 mmHg 65%
    10:00 +22°C° 0 mm 1 mps 741 mmHg 59%
    11:00 +23°C° 0 mm 1 mps 741 mmHg 53%
    12:00 +23°C° 0 mm 1 mps 741 mmHg 52%
    13:00 +24°C° 0 mm 1 mps 740 mmHg 51%
    14:00 +24°C° 0 mm 1 mps 740 mmHg 51%
    15:00 +24°C° 0 mm 1 mps 740 mmHg 55%
    16:00 +24°C° 0 mm 2 mps 740 mmHg 60%
    17:00 +23°C° 0 mm 2 mps 739 mmHg 64%
    18:00 +21°C° 0 mm 2 mps 739 mmHg 70%
    19:00 +19°C° 0 mm 3 mps 739 mmHg 76%
    20:00 +17°C° 0 mm 3 mps 739 mmHg 82%
    21:00 +16°C° 0 mm 3 mps 739 mmHg 81%
    22:00 +16°C° 0 mm 3 mps 738 mmHg 81%
    23:00 +14°C° 0 mm 3 mps 738 mmHg 81%

    2 July, Tuesday

    Time Temperature Precipitation Wind Pressure Humidity
    00:00 +14°C° 0 mm 3 mps 738 mmHg 83%
    01:00 +14°C° 0 mm 3 mps 737 mmHg 86%
    02:00 +13°C° 0 mm 3 mps 737 mmHg 88%
    03:00 +14°C° 0 mm 3 mps 737 mmHg 90%
    04:00 +16°C° 0 mm 3 mps 737 mmHg 91%
    05:00 +16°C° 0 mm 3 mps 737 mmHg 92%
    06:00 +18°C° 0.2 mm 3 mps 736 mmHg 91%
    07:00 +19°C° 0.2 mm 3 mps 736 mmHg 90%
    08:00 +21°C° 0.2 mm 3 mps 736 mmHg 89%
    09:00 +21°C° 0.1 mm 3 mps 736 mmHg 89%
    10:00 +21°C° 0.1 mm 3 mps 736 mmHg 89%
    11:00 +21°C° 0.1 mm 3 mps 736 mmHg 88%
    12:00 +22°C° 0.1 mm 3 mps 736 mmHg 85%
    13:00 +23°C° 0.1 mm 4 mps 735 mmHg 81%
    14:00 +23°C° 0.1 mm 4 mps 735 mmHg 77%
    15:00 +23°C° 0.2 mm 4 mps 735 mmHg 77%
    16:00 +23°C° 0.2 mm 5 mps 735 mmHg 77%
    17:00 +23°C° 0.2 mm 5 mps 735 mmHg 77%
    18:00 +21°C° 0 mm 4 mps 736 mmHg 81%
    19:00 +19°C° 0 mm 3 mps 736 mmHg 84%
    20:00 +18°C° 0 mm 3 mps 736 mmHg 88%
    21:00 +17°C° 0 mm 3 mps 736 mmHg 89%
    22:00 +16°C° 0 mm 3 mps 736 mmHg 89%
    23:00 +14°C° 0 mm 3 mps 736 mmHg 90%
    Show more